Location: Liscomb Game Sanctuary
(45.1633°N, 62.5575°W)
Time: 19:11:45
(UTC-03:00)

USA 186 - Pass Details

Date: 22 February 2018
Orbit: 265 x 461 km, 96.9° (Epoch: 14 June)

Event Time Altitude Azimuth Distance (km) Brightness Sun altitude
Exits shadow 18:35:50 12° 69° (ENE) 1,524 4.0 -9.2°
Drops below altitude 10° 18:37:32 10° 41° (NE) 1,644 4.3 -9.5°
Enters shadow 19:44:44 -42° 169° (S) 8,974 8.5 -21.3°
